Temperature
15 15 16 16 16 16 16 16 16 16 16 16 15 15 15 15 15 15 15 15 15 15 15 15 15 15 15 15 15 15 15 15 15 15 15 15 15 15 15 15 15 15 15
16 16 16 16 16 16 16 16 16 16 16 16 15 15 15 15 15 15 15 15 15 15 15 15 15 15 15 15 15 15 15 15 15 15 15 15 15 15 15 15 15 15 15
16 16 16 16 16 16 16 16 16 16 16 15 15 15 15 15 15 15 15 15 15 15 15 15 15 15 15 15 15 15 15 15 14 14 14 14 14 14 14 14 14 14 15
15 15 15 16 16 16 16 16 16 16 16 16 15 15 15 15 15 15 15 15 15 15 15 15 15 15 15 15 15 14 14 14 14 14 14 14 14 14 14 14 14 14 14
15 15 15 16 16 16 16 16 16 16 16 15 15 15 15 15 15 15 15 15 15 15 15 15 15 15 15 14 14 14 14 14 14 14 14 14 14 14 14 14 14 14 14
15 15 15 15 16 16 16 16 16 16 16 15 15 15 15 15 15 15 15 15 15 15 14 14 14 14 14 14 14 14 14 14 14 14 14 14 14 14 14 14 14 14 14
15 15 15 15 15 16 16 16 16 15 15 15 15 15 15 15 14 14 14 14 14 14 14 14 14 14 14 14 13 13 13 13 13 13 13 13 13 13 13 13 14 14 14
15 15 15 15 15 15 15 15 15 15 15 15 15 15 15 14 14 14 14 14 14 14 14 14 14 14 14 13 13 13 13 13 13 13 13 13 13 13 13 13 13 13 13
14 14 14 15 15 15 15 15 15 15 15 15 15 14 14 14 14 14 14 14 14 14 14 14 14 14 13 13 13 13 13 13 13 13 12 12 12 13 13 13 13 13 13
14 14 14 14 15 15 15 14 14 15 14 14 14 14 14 14 14 14 14 14 14 14 14 14 14 13 13 13 13 13 12 12 12 12 12 12 12 12 12 13 13 13 13
14 14 14 14 14 14 14 14 14 14 14 14 14 14 14 14 14 14 14 14 13 13 13 13 13 13 13 13 12 12 12 12 12 12 12 12 12 12 12 12 12 12 12
13 13 14 14 14 14 14 14 14 14 14 14 14 14 14 14 14 14 13 13 13 13 13 13 13 13 13 12 12 12 12 12 12 12 12 12 12 12 12 12 12 12 12
13 13 13 13 13 13 14 14 14 14 14 14 13 13 13 13 13 13 13 13 13 13 13 13 12 12 12 12 12 12 12 12 12 12 11 11 11 11 11 11 12 12 12
13 13 13 13 13 13 13 13 13 13 13 13 13 13 13 13 13 13 13 13 13 12 12 12 12 12 12 12 12 11 11 11 11 11 11 11 11 11 11 11 11 11 11
13 13 13 13 13 13 13 13 13 13 13 13 13 13 13 13 13 13 12 12 12 12 12 12 12 12 12 11 11 11 11 11 11 11 11 11 11 11 11 11 11 11 11
13 13 13 12 12 12 13 13 13 13 13 13 13 13 12 12 12 12 12 12 12 12 12 12 11 11 11 11 11 11 11 11 11 11 11 10 10 10 10 10 10 10 10
13 13 13 12 12 12 12 12 12 12 12 12 12 12 12 12 12 12 12 12 12 12 11 11 11 11 11 11 11 10 10 10 10 10 10 10 10 10 10 10 10 10 10
12 12 12 12 12 12 12 12 12 12 12 12 12 12 12 12 12 12 12 12 11 11 11 11 11 10 10 10 10 10 10 10 10 10 10 10 10 9 9 9 9 9 9
12 12 12 12 12 12 12 12 12 12 12 11 11 11 11 11 11 11 11 11 11 11 11 11 10 10 10 10 10 10 10 9 9 9 9 9 9 9 9 9 9 9 9
11 12 12 12 12 11 11 11 11 11 11 11 11 11 11 11 11 11 11 11 11 11 10 10 10 10 10 10 9 9 9 9 9 9 9 9 9 8 8 8 8 8 8
11 11 11 11 11 11 11 11 11 11 11 11 11 11 11 11 11 10 10 10 10 10 10 10 10 10 9 9 9 9 9 9 8 8 8 8 8 8 8 8 8 8 7
11 11 11 11 11 11 11 11 11 11 10 10 10 10 10 10 10 10 10 10 10 10 10 9 9 9 9 9 9 8 8 8 8 8 8 8 7 7 7 7 7 7 7
11 11 11 11 11 11 10 10 10 10 10 10 10 10 10 10 9 9 9 9 9 9 9 9 9 9 9 8 8 8 7 7 7 7 7 7 7 7 7 7 6 6 6
11 11 11 10 10 10 10 10 10 10 10 10 10 9 9 9 9 9 9 9 9 9 9 9 8 8 8 8 8 7 7 7 6 6 6 7 6 6 6 6 6 6 6
11 10 10 10 10 10 10 10 10 10 9 9 9 9 9 9 9 9 9 9 8 8 8 8 8 8 8 8 7 7 7 7 6 6 6 6 6 6 6 6 6 6 5
10 10 10 10 10 9 9 9 9 9 9 9 9 9 9 8 8 8 8 8 8 8 8 8 8 7 7 7 7 7 6 6 6 5 5 5 5 6 6 5 5 5 5
Wind_Speed
5 8 14 13 14 13 13 12 12 12 12 12 12 12 12 12 12 12 12 12 11 11 11 11 11 11 11 10 10 9 9 9 9 8 8 7 7 7 7 7 7 7 7
8 11 15 14 14 14 13 13 13 12 12 12 12 12 11 11 11 11 11 11 11 10 10 11 11 11 10 10 10 9 9 9 9 9 8 7 6 5 5 6 6 6 6
10 12 14 14 14 14 14 13 13 12 12 12 11 11 11 11 11 11 11 11 11 11 10 10 10 10 10 9 9 9 9 9 9 9 8 6 5 5 4 4 5 5 5
11 12 13 14 14 14 14 14 13 12 12 11 11 11 11 11 11 11 10 10 10 10 10 10 10 9 9 9 9 9 9 9 9 9 8 7 5 5 5 5 5 5 5
10 11 12 14 14 14 14 13 13 12 11 11 11 11 11 11 11 10 10 10 10 10 10 9 9 8 8 8 8 9 9 9 9 9 9 8 6 6 6 6 5 5 4
8 11 12 13 14 13 13 13 13 12 11 11 11 10 10 11 10 10 10 10 9 9 9 9 8 8 8 8 9 9 10 10 10 9 9 8 6 6 6 6 5 5 5
8 10 12 13 13 13 13 13 12 12 11 11 11 10 10 10 10 10 10 10 9 9 9 9 8 8 8 9 10 11 10 9 9 9 8 8 7 7 8 7 6 6 6
9 9 11 13 13 13 12 12 12 12 11 11 11 10 10 10 10 10 9 9 9 9 9 8 8 8 8 9 10 12 12 11 9 8 8 8 8 8 8 8 7 7 6
9 9 8 11 13 12 12 12 12 12 11 11 10 10 10 9 9 9 8 8 8 8 8 8 8 8 8 9 10 11 12 12 10 8 8 7 8 8 7 7 7 7 7
6 7 7 8 10 11 11 12 12 11 11 10 10 10 9 9 8 8 8 8 8 8 8 8 8 8 9 10 10 11 12 11 11 9 8 8 9 9 8 8 7 7 7
5 5 7 7 8 10 10 10 10 10 10 9 9 9 8 7 7 7 7 7 8 8 8 8 8 9 10 10 11 12 11 10 10 8 8 10 11 10 9 9 9 8 7
5 5 6 7 7 8 8 8 8 8 8 8 8 8 8 7 7 6 7 7 7 8 8 8 8 9 9 9 10 11 10 10 9 8 8 10 11 10 9 9 9 8 8
6 5 5 6 7 7 6 7 6 6 7 8 8 8 8 8 7 7 7 7 7 7 8 8 8 8 8 8 8 9 9 8 7 7 8 10 10 10 10 9 9 8 8
6 5 5 6 6 6 7 6 6 6 6 6 7 8 7 6 5 5 5 5 6 6 6 6 6 7 7 8 8 8 8 7 6 6 7 9 9 9 9 9 9 8 8
6 6 6 6 6 6 6 6 6 6 6 6 7 7 7 5 4 4 4 5 5 5 5 4 5 5 6 6 7 7 6 7 7 7 7 8 9 9 9 9 9 9 9
6 6 6 6 6 6 5 5 6 7 7 6 6 6 7 6 5 4 4 4 4 4 4 4 4 4 4 4 5 6 6 6 6 7 7 7 8 9 9 9 9 10 10
6 6 6 7 7 6 5 6 6 7 7 6 5 6 7 7 6 5 3 2 3 4 5 5 5 5 3 4 3 4 4 5 5 6 6 6 6 7 9 10 10 10 10
6 6 6 7 7 6 5 6 6 7 7 6 5 5 6 7 7 5 3 2 3 4 4 3 2 3 3 3 2 2 2 3 4 4 5 5 5 6 7 9 9 10 10
6 6 6 6 7 6 5 5 6 6 6 5 5 5 5 6 6 6 3 3 4 4 3 2 2 2 2 2 2 1 2 2 2 3 4 4 5 5 5 6 8 9 9
5 6 6 7 6 6 5 4 3 4 4 4 4 4 5 5 5 5 4 3 4 3 2 2 2 2 2 1 2 2 2 1 2 2 2 3 4 4 5 5 6 6 8
5 5 6 7 6 6 4 4 4 2 2 2 3 4 5 5 5 4 3 3 3 3 2 2 2 3 2 2 2 3 3 3 2 1 1 2 2 3 4 4 4 5 6
6 6 6 6 7 7 5 4 3 3 2 2 2 3 4 4 4 3 3 2 3 3 3 2 2 2 1 2 2 2 2 3 3 2 2 1 1 2 3 3 3 3 4
6 7 7 7 7 7 6 4 4 4 3 2 2 1 2 4 4 4 4 3 3 3 2 1 2 3 1 1 1 2 2 1 2 3 2 1 1 1 2 2 2 3 3
7 6 6 7 7 6 6 6 6 5 4 3 2 2 2 3 3 3 4 4 3 2 2 1 1 2 3 1 0 1 1 2 1 2 3 2 2 2 3 2 3 4 4
5 5 6 6 6 6 6 7 6 4 3 2 2 3 2 1 2 3 4 4 3 2 2 1 1 2 2 2 2 1 1 1 1 2 3 3 3 3 3 3 3 4 5
4 5 6 7 6 6 6 6 6 6 5 4 3 3 2 1 1 2 3 3 3 2 2 2 2 2 2 2 2 2 2 2 2 2 3 3 4 3 3 3 2 3 5
Wind_Direction
160 157 144 138 133 127 121 118 116 112 107 104 100 98 95 92 90 88 86 84 80 76 71 69 66 66 64 64 63 62 59 55 52 51 52 52 55 61 69 69 66 69 72
151 149 143 138 133 130 125 120 117 114 111 108 104 102 99 96 93 91 88 87 83 80 76 71 68 66 64 63 62 60 55 50 46 46 45 44 46 53 72 77 77 77 71
135 138 140 137 134 131 128 124 120 116 113 111 107 106 104 101 98 93 88 86 83 79 75 71 68 66 64 62 59 55 50 45 43 40 41 40 39 52 72 87 87 84 76
134 136 140 137 135 133 131 128 124 120 117 114 111 109 106 102 98 93 89 85 82 80 77 73 69 65 64 59 55 50 45 42 43 42 41 36 38 57 63 81 86 84 77
130 134 139 140 136 134 132 131 127 124 120 116 114 110 107 104 99 94 90 86 83 79 75 72 68 64 61 57 52 46 44 43 49 46 42 38 40 57 63 68 71 73 71
127 132 138 141 136 134 134 133 130 127 123 119 116 113 110 106 102 96 91 88 84 79 75 71 67 63 59 55 50 48 49 52 54 50 43 39 41 57 63 64 64 61 56
132 132 139 142 139 135 135 134 133 130 126 123 121 116 112 108 102 96 91 88 86 82 77 73 69 64 58 52 50 49 51 59 60 53 43 39 45 59 60 59 57 56 53
138 135 139 143 141 137 135 136 136 133 130 126 124 119 112 108 102 98 94 89 85 82 78 74 69 63 58 52 51 51 56 63 61 53 43 39 46 56 57 58 57 53 48
137 134 129 139 143 140 137 138 138 138 134 129 125 121 117 112 106 103 98 92 85 81 76 72 68 62 57 54 54 55 63 64 60 53 46 39 42 49 50 50 51 50 47
136 136 133 134 141 140 139 140 141 140 137 131 125 121 116 111 106 102 97 91 85 79 74 69 66 63 57 54 53 59 68 63 58 50 42 42 46 48 48 47 47 47 46
142 145 144 143 147 150 148 149 144 142 136 126 119 119 114 105 101 96 90 88 84 77 72 67 65 60 55 53 55 62 64 60 60 51 43 44 46 47 47 48 48 46 45
162 167 157 155 156 157 154 146 141 137 130 122 117 116 109 103 97 94 89 85 80 73 69 64 62 57 53 51 54 59 61 61 60 50 41 42 42 45 47 47 46 42 39
171 171 161 161 166 160 148 147 142 132 125 120 118 117 110 98 90 83 79 73 69 67 58 53 53 49 52 54 55 58 60 61 60 51 40 42 40 41 44 45 45 42 38
170 171 165 157 160 158 149 148 146 137 129 121 120 120 111 96 86 83 78 74 68 58 51 48 48 50 53 58 63 63 61 63 60 51 46 45 42 39 41 42 44 44 42
170 172 172 159 154 155 144 147 141 140 136 129 121 122 121 111 106 93 81 76 70 64 60 50 51 54 54 56 61 67 65 64 62 57 50 48 45 42 42 42 44 45 46
182 175 171 162 155 155 149 147 144 143 139 126 119 123 124 120 115 105 88 72 68 69 71 69 67 65 61 61 57 62 67 66 65 59 55 49 48 46 44 43 43 42 42
184 172 169 164 155 152 150 149 144 142 138 128 125 122 122 121 117 112 100 82 68 77 75 67 61 62 60 56 53 56 69 67 67 63 61 60 53 46 44 42 40 38 36
172 170 170 161 152 147 147 144 140 138 134 133 132 122 120 122 123 113 107 98 85 78 71 75 72 65 54 49 36 27 52 63 64 65 67 68 64 53 45 43 39 35 30
171 170 168 151 152 149 140 137 136 134 130 133 131 128 119 118 124 116 109 95 96 79 68 82 75 80 64 39 24 33 27 40 55 67 69 70 70 67 55 46 41 35 28
161 162 165 155 153 143 129 117 109 109 117 126 136 138 126 118 119 121 115 97 94 88 70 78 84 69 80 46 35 29 8 4 44 64 75 69 66 65 61 53 40 29 24
149 152 165 162 158 147 139 142 136 144 131 124 148 146 136 129 123 120 122 108 98 99 91 91 98 74 43 34 53 23 6 13 31 29 57 66 54 51 54 47 37 25 12
163 163 167 169 166 161 154 148 138 137 135 136 141 141 145 141 139 130 119 119 111 104 85 76 94 96 42 41 82 78 12 352 359 9 357 22 35 34 33 21 19 11 2
172 175 172 168 168 163 152 131 113 97 87 103 128 134 160 156 151 140 130 121 116 120 126 118 123 130 133 18 75 127 133 242 307 323 332 347 347 346 337 328 336 333 337
187 178 165 166 163 159 151 152 150 151 159 179 170 160 153 155 156 154 144 138 132 127 139 154 130 142 146 156 26 56 153 164 178 306 317 321 320 301 295 308 305 303 309
176 170 164 159 158 153 154 158 151 150 157 146 135 143 155 147 162 164 155 145 141 143 155 153 132 141 156 166 170 158 85 77 156 190 272 304 318 298 289 281 277 280 290
157 159 158 155 158 157 156 157 158 161 159 151 152 162 173 166 167 170 152 150 156 160 169 176 173 168 174 171 173 177 180 190 197 194 237 269 286 287 287 276 262 262 278
Height
1529 1531 1533 1534 1535 1536 1536 1537 1537 1538 1538 1538 1539 1539 1539 1539 1539 1539 1539 1538 1538 1538 1538 1538 1538 1538 1538 1537 1538 1538 1538 1538 1538 1538 1538 1538 1538 1538 1537 1537 1537 1537 1537
1527 1530 1532 1534 1535 1535 1536 1537 1537 1537 1538 1538 1539 1539 1539 1539 1539 1539 1539 1539 1538 1538 1538 1538 1537 1537 1537 1537 1537 1537 1537 1538 1538 1538 1538 1538 1538 1538 1538 1538 1537 1537 1537
1527 1529 1531 1533 1534 1535 1536 1536 1537 1537 1538 1538 1539 1539 1539 1539 1539 1539 1539 1538 1538 1538 1538 1537 1537 1537 1537 1537 1537 1537 1537 1537 1537 1538 1538 1538 1538 1538 1538 1538 1538 1538 1537
1527 1529 1531 1532 1533 1534 1535 1536 1537 1537 1538 1538 1538 1539 1539 1539 1539 1539 1539 1538 1538 1538 1537 1537 1537 1537 1537 1537 1537 1537 1537 1537 1537 1537 1538 1538 1538 1538 1538 1538 1538 1538 1537
1527 1529 1530 1532 1533 1534 1535 1536 1536 1537 1537 1538 1538 1539 1539 1539 1539 1539 1538 1538 1538 1538 1537 1537 1537 1537 1536 1536 1536 1536 1536 1536 1537 1537 1537 1537 1537 1537 1537 1537 1537 1537 1537
1526 1528 1530 1532 1533 1533 1534 1535 1536 1537 1537 1538 1538 1538 1539 1539 1539 1539 1538 1538 1538 1538 1537 1537 1537 1537 1536 1536 1536 1536 1536 1536 1536 1537 1537 1537 1537 1537 1537 1537 1537 1537 1537
1526 1527 1529 1531 1532 1533 1534 1535 1536 1536 1537 1537 1538 1538 1539 1539 1539 1539 1539 1538 1538 1538 1537 1537 1537 1537 1537 1536 1536 1536 1536 1536 1536 1536 1537 1537 1537 1537 1536 1536 1536 1536 1536
1525 1527 1528 1530 1531 1532 1533 1534 1535 1536 1536 1537 1538 1538 1538 1538 1539 1539 1539 1538 1538 1538 1537 1537 1537 1537 1537 1536 1536 1536 1536 1536 1536 1536 1536 1536 1536 1536 1536 1536 1535 1535 1535
1525 1526 1527 1529 1530 1532 1533 1534 1534 1535 1536 1537 1537 1538 1538 1538 1538 1538 1538 1538 1538 1538 1537 1537 1537 1537 1537 1536 1536 1536 1536 1536 1536 1536 1536 1536 1536 1535 1535 1535 1534 1534 1534
1524 1525 1526 1528 1529 1530 1532 1533 1534 1535 1536 1536 1537 1537 1538 1538 1538 1538 1538 1538 1538 1538 1537 1537 1537 1537 1537 1536 1536 1536 1536 1536 1536 1536 1536 1536 1535 1535 1534 1534 1534 1533 1533
1522 1523 1525 1526 1528 1529 1531 1532 1533 1534 1535 1536 1536 1537 1537 1537 1537 1538 1538 1538 1538 1538 1537 1537 1537 1537 1537 1536 1536 1536 1536 1536 1536 1536 1535 1535 1535 1534 1533 1533 1533 1532 1532
1520 1521 1523 1525 1526 1528 1529 1531 1532 1533 1534 1535 1535 1536 1536 1537 1537 1537 1537 1538 1538 1537 1537 1537 1537 1537 1537 1536 1536 1536 1536 1535 1535 1535 1535 1535 1534 1534 1533 1532 1532 1531 1531
1518 1520 1521 1523 1525 1527 1528 1529 1531 1532 1533 1534 1534 1535 1536 1536 1536 1537 1537 1537 1537 1537 1537 1537 1537 1537 1536 1536 1536 1536 1535 1535 1535 1535 1534 1534 1534 1533 1532 1532 1531 1530 1530
1517 1518 1520 1522 1523 1525 1527 1528 1529 1531 1532 1532 1533 1534 1535 1535 1536 1536 1536 1536 1537 1537 1537 1537 1536 1536 1536 1536 1535 1535 1535 1534 1534 1534 1534 1533 1533 1532 1532 1531 1530 1529 1529
1514 1516 1518 1520 1522 1524 1525 1526 1528 1529 1530 1531 1532 1533 1534 1534 1535 1535 1535 1536 1536 1536 1536 1536 1536 1536 1536 1535 1535 1535 1534 1534 1534 1533 1533 1533 1532 1532 1531 1530 1530 1529 1528
1512 1514 1516 1518 1520 1522 1523 1524 1526 1528 1529 1530 1531 1532 1533 1533 1534 1534 1534 1535 1535 1535 1535 1535 1535 1535 1535 1535 1534 1534 1534 1533 1533 1533 1532 1532 1532 1531 1530 1530 1529 1528 1527
1510 1512 1514 1517 1518 1520 1521 1522 1524 1526 1527 1528 1529 1530 1531 1532 1533 1533 1534 1534 1534 1535 1535 1535 1535 1535 1534 1534 1534 1534 1533 1533 1532 1532 1531 1531 1531 1530 1530 1529 1528 1527 1526
1508 1511 1513 1515 1516 1518 1519 1520 1522 1524 1525 1526 1528 1529 1530 1531 1531 1532 1533 1533 1533 1534 1534 1534 1534 1534 1533 1533 1533 1533 1532 1532 1531 1531 1531 1530 1530 1529 1529 1528 1527 1526 1525
1507 1509 1511 1512 1514 1516 1517 1519 1520 1522 1524 1525 1526 1528 1528 1529 1530 1530 1531 1532 1532 1532 1532 1532 1532 1532 1532 1532 1532 1531 1531 1531 1530 1530 1530 1529 1529 1528 1527 1527 1526 1525 1524
1505 1507 1509 1511 1513 1514 1515 1517 1518 1520 1521 1523 1525 1526 1527 1528 1529 1529 1529 1530 1530 1531 1531 1531 1531 1531 1531 1530 1530 1530 1530 1529 1529 1529 1529 1528 1528 1527 1526 1525 1524 1523 1522
1503 1504 1507 1509 1511 1512 1513 1515 1516 1518 1520 1521 1523 1524 1525 1527 1527 1528 1528 1528 1529 1529 1529 1529 1529 1529 1529 1529 1529 1528 1528 1528 1528 1528 1527 1527 1526 1526 1525 1524 1522 1521 1520
1500 1502 1504 1506 1509 1511 1512 1514 1515 1516 1518 1520 1521 1522 1524 1525 1526 1526 1526 1526 1527 1527 1528 1528 1528 1527 1527 1527 1527 1527 1526 1527 1526 1526 1526 1525 1525 1524 1523 1522 1521 1519 1518
1498 1500 1501 1504 1507 1509 1511 1512 1513 1515 1516 1518 1519 1521 1522 1523 1524 1525 1524 1524 1525 1525 1526 1526 1526 1526 1526 1526 1526 1526 1525 1524 1524 1524 1523 1523 1522 1522 1521 1520 1519 1517 1516
1496 1498 1500 1503 1506 1507 1509 1510 1511 1512 1514 1516 1518 1519 1520 1521 1522 1522 1522 1523 1523 1523 1523 1524 1524 1524 1524 1523 1524 1524 1524 1523 1523 1521 1521 1521 1520 1519 1518 1517 1516 1515 1513
1494 1496 1498 1501 1503 1505 1507 1509 1510 1511 1513 1514 1515 1517 1518 1519 1520 1520 1520 1520 1520 1521 1521 1521 1521 1521 1521 1521 1521 1521 1521 1521 1520 1519 1517 1517 1516 1516 1515 1514 1513 1512 1510
1493 1495 1497 1499 1501 1504 1506 1507 1508 1510 1511 1512 1513 1515 1516 1517 1517 1518 1518 1518 1518 1518 1519 1519 1519 1518 1518 1518 1518 1518 1518 1518 1517 1516 1515 1513 1512 1511 1511 1511 1510 1508 1507